OKEAN-0
1 25860U 99039A 11012.81668572 .00000090 00000-0 21176-4 0 02026
2 25860 097.8627 343.7401 0001753 093.6402 266.5003 14.73700756617774
NOAA-16
1 26536U 00055A 11013.31294184 -.00000130 00000-0 -45364-4 0 1488
2 26536 099.1572 040.5929 0011241 106.6821 253.5564 14.12592997531490
NOAA-17
1 27453U 02032A 11012.77805036 .00000137 00000-0 77379-4 0 01449
2 27453 098.4029 059.4625 0010810 242.9298 117.0771 14.24227228444530
NOAA-18
1 28654U 05018A 11012.78395885 .00000123 00000-0 92489-4 0 06299
2 28654 098.9778 323.7135 0014230 179.5663 180.5532 14.11425538291006
NOAA-19
1 33591U 09005A 11012.81784686 .00000388 00000-0 23935-3 0 08249
2 33591 098.8125 315.7115 0014889 057.6456 302.6156 14.11121384099470
HUBBLE
1 20580U 90037B 11011.15833349 .00000612 00000-0 33865-4 0 6999
2 20580 028.4718 322.0136 0003433 245.5637 114.4619 15.01138125936033
ISS
1 25544U 98067A 11013.87834491 .00100464 00000-0 74875-3 0 6367
2 25544 051.6444 231.9850 0005243 180.6343 008.4322 15.71951205696616
CO-58
1 28895U 05043F 11012.63529875 .00000338 00000-0 79666-4 0 07758
2 28895 097.9881 254.8322 0017817 352.4169 007.6808 14.59994104277546
FALCON
1 30776U 07006E 11012.94000082 .00000896 00000-0 66439-4 0 00002
2 30776 035.4322 210.4861 0001243 258.4188 101.6389 15.04061827211659
MAST
1 31126U 07012K 11013.51074655 -.00000004 00000-0 96844-5 0 589
2 31126 097.9122 049.3528 0093698 292.5694 066.5621 14.53663465198612
CAPE1
1 31130U 07012P 11012.52427126 .00000042 00000-0 20414-4 0 00804
2 31130 097.9147 045.4343 0101641 305.0715 054.0985 14.52278065198047
COMPASS
1 32787U 08021E 11012.33973801 .00000602 00000-0 82256-4 0 08812
2 32787 097.8680 078.9442 0015269 328.1661 031.8649 14.82108497146478
AAUSAT2
1 32788U 08021F 11012.65911588 .00000035 00000-0 10972-4 0 08706
2 32788 097.8688 079.4368 0014930 328.2611 031.7666 14.82266737146537
DO-64
1 32789U 08021G 11013.71911106 .00000451 00000-0 62679-4 0 8872
2 32789 097.8773 081.2237 0014772 322.0285 037.9870 14.82542557146691
CO-66
1 32791U 08021J 11012.19201465 -.00000002 00000-0 64545-5 0 08728
2 32791 097.8696 078.7807 0015668 327.3585 032.6651 14.81852837146400
RS-30
1 32953U 08025A 11013.60861912 .00000010 00000-0 00000 0 0 3844
2 32953 082.5011 258.8296 0019540 005.9994 354.1318 12.43010353119880
TACSAT-3
1 35001U 09028A 11012.48983316 .00007144 00000-0 15470-3 0 04862
2 35001 040.4550 034.6100 0021411 132.5067 227.7561 15.44402197092970
PHARMSAT
1 35002U 09028B 11012.45432056 .00006104 00000-0 13168-3 0 4452
2 35002 040.4692 032.3281 0023264 135.7779 224.4901 15.44649281 92997
HAWKSAT1
1 35003U 09028C 11012.41086743 .00017760 00000-0 29897-3 0 4857
2 35003 040.4580 018.7777 0022573 162.1528 198.0090 15.50952740 93147
CP6
1 35004U 09028D 11013.38186984 .00020109 00000-0 31271-3 0 4886
2 35004 040.4594 009.3329 0022522 176.2385 183.8609 15.53096643 93325
AEROCUB3
1 35005U 09028E 11006.09222617 .14049365 73043-5 82692-3 0 6103
2 35005 040.4461 021.7975 0025578 084.1677 280.7191 16.39196088 92544
METEOR-M
1 35865U 09049A 11013.68608392 .00000176 00000-0 10000-3 0 86
2 35865 098.7305 070.6572 0003064 106.5994 253.5457 14.21834054 68631
RS-38
1 35869U 09049E 11013.70452771 .00000177 00000-0 10000-3 0 217
2 35869 098.7281 070.7159 0005247 111.3818 248.7879 14.21998097 68647
